Tracking 25963 objects as of 13-Aug-2022
HD Live streaming from Space Station
objects crossing your sky now

STARLINK-4337

Track STARLINK-4337 now!
10-day predictions
STARLINK-4337 is classified as:


NORAD ID: 53053
Int'l Code: 2022-077L
Perigee: 462.4 km
Apogee: 464.9 km
Inclination: 97.7 °
Period: 93.7 minutes
Semi major axis: 6834 km
RCS: Unknown
Launch date: July 11, 2022
Source: United States (US)
Launch site: AIR FORCE WESTERN TEST RANGE (AFWTR)
aabbcc
Your satellite tracking list
Your tracking list is empty




NASA's NSSDC Master Catalog

Two Line Element Set (TLE):
1 53053U 22077L   22224.58334491 -.01213861  00000-0 -37610-1 0  9995
2 53053  97.6552  44.6595 0001769  82.6638 194.7215 15.36484805  1308
Source of the keplerian elements: AFSPC